Flight Information

DEPARTURE
MISSOULA, MT
Elevation:
3205
Runways:
8/26 - 4612x75 - ASPH-F
12/30 - 9501x150 - ASPH-G
ATIS:
126.65
Ground:
121.9
Tower:
MISSOULA TOWER 118.4
DESTINATION
,
Elevation:
TPA:
1000 (est.)


6371.1 NM72° True-18° Var54° HDG

Flight Plan:
(click to file on line)

1. Type
2. Aircraft Identification
3. Aircraft Type / Special Equipment
4. True Airspeed
kts
5. Departure Airport
(ICAO code)
6. Arriving Airport
(ICAO code)
7. Cruising Altitude
ft
8. Alternate Airport
(ICAO code)
9. Route of Flight
10. Remarks


00:00:00 Departure ATIS: Destination ATIS:

Clearance Limit:
Route:
Altitude: Expect in minutes
Frequency:
Transponder: (7500 Hijack / 7600 Lost Comms / 7700 Emergency)


KMSO 211753Z 00000KT 10SM CLR 09/04 A3046 RMK AO2 SLP325 T00940039 10094 21006 58011 $
Time: 2021-09-21T17:53:00Z
1632248237
Winds: calm
Visibility: 10.0 sm
Clouds (AGL): CLR
Temperature: 9.4 C
Dew Point: 3.9 C
Pressure: 30.46063 in Hgbr


Notes:

Data extracted from FAA Digital Chart Supplement. Effective: 0901Z Thursday, AUG 12, 2021 to 0901Z Thursday, OCT 7, 2021
Current ATIS data is provided courtisy of PilotEdge.